Regional Weather Roundup
Issued by NWS Charleston, SC

Current Version | Previous Version | Graphics & Text | Print | Product List | Glossary On
Versions: 1 2 3 4 5 6 7 8 9 10 11 12 13 14 15 16 17 18 19 20 21 22 23 24 25 26 27 28 29 30 31 32 33 34 35 36 37 38 39 40 41 42 43 44 45 46 47 48 49 50
761
ASUS42 KCHS 261227
RWRCHS

REGIONAL WEATHER ROUNDUP
NATIONAL WEATHER SERVICE CHARLESTON SC
800 AM EDT FRI MAY 26 2017

NOTE: "FAIR" INDICATES FEW OR NO CLOUDS BELOW 12,000 FEET WITH NO
SIGNIFICANT WEATHER AND/OR OBSTRUCTIONS TO VISIBILITY.

NOT ALL STATIONS ARE QUALITY CONTROLLED. USE DATA WITH CAUTION...
ESPECIALLY DEWPOINT OBSERVATIONS.

SCZ027-030-031-034>040-042>050-261300-
...SOUTHEAST SOUTH CAROLINA...

CITY           SKY/WX    TMP DP  RH WIND       PRES   REMARKS
N CHARLESTON   SUNNY     65  53  65 W10       30.01R
6HR MIN TEMP:  60; 6HR MAX TEMP:  65;

WATERFRONT PRK   N/A     66  56  70 W5        29.99R
JOHNS ISLAND   FAIR      70  57  64 W7        30.02R
PINOPOLIS        N/A     64  57  77 W7        29.90R
MONCKS CORNER  FAIR      64  54  68 CALM      30.01R
SUMMERVILLE    FAIR      63  55  77 W3        30.02R
BEAUFORT MCAS  SUNNY     67  56  67 W7        30.02R
6HR MIN TEMP:  61; 6HR MAX TEMP:  67;

BEAUFORT ARPT  FAIR      68  55  64 W6        30.03R
HILTON HEAD IS SUNNY     66  55  68 W5        30.03R
WALTERBORO     SUNNY     64  54  68 W6        30.03R
ALLENDALE      FAIR      64  55  72 CALM      30.01R

...SOUTHERN MIDLANDS AND PEE DEE...

CITY           SKY/WX    TMP DP  RH WIND       PRES   REMARKS
GEORGETOWN     FAIR      63  55  77 SW8       30.00R
KINGSTREE      FAIR      63  54  72 W6        29.99R
ORANGEBURG     SUNNY     62  56  80 SW3       30.00R
6HR MIN TEMP:  56; 6HR MAX TEMP:  62;

BARNWELL       FAIR      63  57  82 W3        30.01R
AIKEN          FAIR      61  54  77 W7        30.04R
MANNING        FAIR      64  57  77 CALM      30.00R
COLUMBIA       MOSUNNY   64  54  69 CALM      29.98R
6HR MIN TEMP:  56; 6HR MAX TEMP:  64;

SUMTER         SUNNY     64  54  68 W8        29.96R
6HR MIN TEMP:  58; 6HR MAX TEMP:  64;

FLORENCE       SUNNY     64  55  72 W9        29.97R
6HR MIN TEMP:  57; 6HR MAX TEMP:  64;

MYRTLE BEACH   SUNNY     66  55  68 W12       29.98R
N MYRTLE BEACH SUNNY     65  55  70 W8        29.96R
6HR MIN TEMP:  62; 6HR MAX TEMP:  67;


$$

GAZ063-065-086>088-099>101-113>116-118-119-134>141-150-261300-
...SOUTHEAST GEORGIA...

CITY           SKY/WX    TMP DP  RH WIND       PRES   REMARKS
SAVANNAH ARPT  MOSUNNY   63  55  75 W6        30.04R
6HR MIN TEMP:  58; 6HR MAX TEMP:  63;

HUNTER AAF     SUNNY     63  61  91 CALM      30.01R
6HR MIN TEMP:  56; 6HR MAX TEMP:  63;

FORT STEWART   SUNNY     62  56  80 W5        30.02R
6HR MIN TEMP:  55; 6HR MAX TEMP:  62;

STATESBORO     SUNNY     64  61  87 W3        30.04R
SYLVANIA       SUNNY     64  59  83 NW5       30.04R
CLAXTON        FAIR      62  62 100 CALM      30.05R

...CSRA...CENTRAL AND FAR SOUTHEAST GEORGIA...

CITY           SKY/WX    TMP DP  RH WIND       PRES   REMARKS
THOMSON        SUNNY     62  54  73 N6        30.08R
AUGUSTA-BUSH   SUNNY     64  55  72 CALM      30.01R
6HR MIN TEMP:  55; 6HR MAX TEMP:  64;

AUGUSTA-DANIEL SUNNY     66  50  56 NW7       30.01R
SWAINSBORO     FAIR      61  55  82 CALM      30.05R
VIDALIA        SUNNY     64  57  77 CALM      30.05R
EASTMAN        FAIR      60  57  92 CALM      30.08R
HAZLEHURST     FAIR      66  59  77 CALM      30.05R
ALMA           SUNNY     62  57  83 CALM      30.04R
6HR MIN TEMP:  53; 6HR MAX TEMP:  62;

WAYCROSS       SUNNY     67  61  79 CALM      30.06R
JESUP          FAIR      64  55  72 CALM      30.06R
BAXLEY         FAIR      63  63 100 CALM      30.05R
BRUNSWICK      SUNNY     64  59  82 CALM      30.06R
SAINT SIMONS   MOSUNNY   67  58  72 W5        30.04R
6HR MIN TEMP:  61; 6HR MAX TEMP:  67;


$$

SCZ027-028-034-036>038-045-046-048>050-GAZ119-141-261300-
...LAKE AND SUPPLEMENTAL COASTAL OBSERVATIONS...

STATION/POSITION TIME  TEMP    WIND        PRES    WAVE   SWELL
                       AIR SEA DIR/SP/G            HT/PER HT/PER/DIR
                 (UTC) (F)     (DEG/KT/KT) (MB)    (FT/S) (FT/S/D)
WINYAH BAY       1130   64     260/  6     1015.0R
LAKE MURRAY      1220   65     290/  6/ 10 1014.9
ACE BASIN NERRS  1145   65        CALM     1017.0R
FORT PULASKI     1200   67     310/  8/  9 1017.1
SAPELO ISLAND    1200   67        CALM     1017.0

$$

ANZ835-935-AMZ111-154-330-350-352-354-370-450-454-472-261300-
...C-MAN AND BUOY OBSERVATIONS...

STATION/POSITION TIME  TEMP    WIND        PRES    WAVE   SWELL
                       AIR SEA DIR/SP/G            HT/PER HT/PER/DIR
                 (UTC) (F)     (DEG/KT/KT) (MB)    (FT/S) (FT/S/D)
BUOY 41004       1210   72 75  290/ 14/ 16 1016.0
BUOY 41008       1150   72 76  310/ 10/ 12 1016.7R   2/ 7   2/100/ 7
FOLLY BEACH CMAN 1200   67     280/  7/ 10 1016.9R
CAPERS NEARSHORE 1208   74 76  290/ 12/ 17 1016.0R
FRIPP NEARSHORE  1208   70 76  290/ 10/ 14 1016.1R


STATION/POSITION TIME  TEMP    WIND        PRES    WAVE   SWELL
                       AIR SEA DIR/SP/G            HT/PER HT/PER/DIR
                 (UTC) (F)     (DEG/KT/KT) (MB)    (FT/S) (FT/S/D)
5E ST. MARYS GA  1200      78                N/A     2/ 7
FRYING PAN BUOY  1210   72 75  280/ 17/ 21 1014.5
BUOY 41025       1150   72 78  270/ 23/ 27 1010.8R   8/ 8   2/310/13
CAPE LOOKOUT NC  1200   70     280/ 18/ 21 1012.3R
BUOY 41002       1150   77 76  270/ 16/ 19 1015.0R   8/ 7   5/110/13
BUOY 41010       1210   78 78  310/ 12/ 14 1016.8
ST AUGUSTINE FL  1200   67 74  280/  6/  8 1018.4R


$$




USA.gov is the U.S. government's official web portal to all federal, state and local government web resources and services.